| time (UTC) | temp F | wind direction | speed knots | gust knots | rain 1hr in | rain 24hr in | rain mn in | humidity % | barometer mb |
| 20260505170939 | 70 | 329 | 3.5 | 3.5 | 0.00 | 0.00 | 0.00 | 45 | 999.3 |
| 20260505170328 | 69 | 322 | 1.7 | 3.5 | 0.00 | 0.00 | 0.00 | 46 | 999.3 |
| 20260505165708 | 69 | 321 | 5.2 | 6.1 | 0.00 | 0.00 | 0.00 | 47 | 999.3 |
| 20260505165110 | 69 | 88 | 2.6 | 2.6 | 0.00 | 0.00 | 0.00 | 48 | 999.3 |
| 20260505164512 | 69 | 132 | 2.6 | 2.6 | 0.00 | 0.00 | 0.00 | 49 | 999.3 |
| 20260505163952 | 69 | 312 | 3.5 | 3.5 | 0.00 | 0.00 | 0.00 | 49 | 1000.0 |
| 20260505163316 | 68 | 43 | 1.7 | 2.6 | 0.00 | 0.00 | 0.00 | 50 | 999.6 |
| 20260505162718 | 68 | 331 | 4.3 | 7.0 | 0.00 | 0.00 | 0.00 | 49 | 1000.0 |
| 20260505162148 | 68 | 302 | 5.2 | 6.1 | 0.00 | 0.00 | 0.00 | 49 | 1000.0 |
| 20260505161535 | 67 | 346 | 3.5 | 3.5 | 0.00 | 0.00 | 0.00 | 50 | 999.6 |
| 20260505160921 | 68 | 240 | 2.6 | 3.5 | 0.00 | 0.00 | 0.00 | 50 | 999.6 |
| 20260505160344 | 67 | 291 | 3.5 | 6.1 | 0.00 | 0.00 | 0.00 | 49 | 1000.0 |
| 20260505153319 | 67 | 243 | 1.7 | 1.7 | 0.00 | 0.00 | 0.00 | 51 | 1000.6 |
| 20260505152748 | 67 | 14 | 0.9 | 0.9 | 0.00 | 0.00 | 0.00 | 52 | 1000.3 |
| 20260505152114 | 66 | 310 | 2.6 | 3.5 | 0.00 | 0.00 | 0.00 | 52 | 1000.0 |
| 20260505151546 | 66 | 124 | 2.6 | 2.6 | 0.00 | 0.00 | 0.00 | 53 | 1000.0 |
| 20260505150942 | 66 | 20 | 1.7 | 2.6 | 0.00 | 0.00 | 0.00 | 53 | 1000.0 |
| 20260505150331 | 66 | 351 | 0.0 | 0.9 | 0.00 | 0.00 | 0.00 | 55 | 1000.0 |
| 20260505140322 | 64 | 351 | 5.2 | 6.1 | 0.00 | 0.00 | 0.00 | 55 | 1000.6 |
| 20260505124537 | 62 | 30 | 1.7 | 2.6 | 0.00 | 0.00 | 0.00 | 60 | 1000.3 |
| 20260505123916 | 62 | 14 | 3.5 | 5.2 | 0.00 | 0.00 | 0.00 | 60 | 1000.3 |
| 20260505123326 | 61 | 30 | 0.9 | 1.7 | 0.00 | 0.00 | 0.00 | 60 | 1000.6 |
| 20260505122715 | 61 | 55 | 0.9 | 1.7 | 0.00 | 0.00 | 0.00 | 62 | 1000.0 |
| 20260505122122 | 61 | 30 | 0.0 | 0.9 | 0.00 | 0.00 | 0.00 | 64 | 1000.3 |
| 20260505120935 | 60 | 297 | 3.5 | 5.2 | 0.00 | 0.00 | 0.00 | 62 | 1000.0 |
| 20260505120316 | 60 | 27 | 1.7 | 2.6 | 0.00 | 0.00 | 0.00 | 64 | 1000.3 |
| 20260505115721 | 60 | 34 | 0.9 | 0.9 | 0.00 | 0.00 | 0.00 | 63 | 1000.3 |
| 20260505115152 | 60 | 27 | 1.7 | 1.7 | 0.00 | 0.00 | 0.00 | 63 | 1000.3 |
| 20260505114514 | 59 | 59 | 1.7 | 1.7 | 0.00 | 0.00 | 0.00 | 64 | 1000.3 |
| 20260505113925 | 59 | 11 | 0.9 | 1.7 | 0.00 | 0.00 | 0.00 | 66 | 1000.3 |
| 20260505113317 | 59 | 20 | 0.0 | 0.0 | 0.00 | 0.00 | 0.00 | 64 | 1000.3 |
| 20260505112135 | 58 | 17 | 0.9 | 0.9 | 0.00 | 0.00 | 0.00 | 67 | 1000.0 |
| 20260505111538 | 58 | 23 | 0.9 | 0.9 | 0.00 | 0.00 | 0.00 | 65 | 1000.3 |
| 20260505110926 | 58 | 42 | 0.9 | 1.7 | 0.00 | 0.00 | 0.00 | 65 | 1000.3 |
| 20260505110324 | 58 | 19 | 1.7 | 1.7 | 0.00 | 0.00 | 0.00 | 66 | 1000.3 |
| 20260505101527 | 58 | 38 | 0.0 | 0.9 | 0.00 | 0.00 | 0.00 | 67 | 999.6 |
| 20260505100942 | 58 | 29 | 0.0 | 0.9 | 0.00 | 0.00 | 0.00 | 64 | 999.6 |
| 20260505100313 | 58 | 23 | 1.7 | 1.7 | 0.00 | 0.00 | 0.00 | 64 | 999.3 |
| 20260505095739 | 59 | 32 | 0.0 | 0.0 | 0.00 | 0.00 | 0.00 | 63 | 999.3 |
| 20260505095146 | 58 | 57 | 1.7 | 1.7 | 0.00 | 0.00 | 0.00 | 64 | 999.6 |
| 20260505094528 | 58 | 47 | 0.0 | 0.9 | 0.00 | 0.00 | 0.00 | 64 | 999.6 |
| 20260505093910 | 58 | 20 | 1.7 | 1.7 | 0.00 | 0.00 | 0.00 | 64 | 999.3 |
| 20260505093331 | 58 | 39 | 1.7 | 1.7 | 0.00 | 0.00 | 0.00 | 65 | 999.3 |
| 20260505092734 | 58 | 28 | 0.0 | 0.9 | 0.00 | 0.00 | 0.00 | 64 | 999.3 |
| 20260505092112 | 59 | 39 | 0.9 | 0.9 | 0.00 | 0.00 | 0.00 | 64 | 999.3 |
| 20260505091543 | 59 | 38 | 0.9 | 0.9 | 0.00 | 0.00 | 0.00 | 65 | 998.9 |
| 20260505090932 | 59 | 27 | 0.9 | 1.7 | 0.00 | 0.00 | 0.00 | 62 | 999.3 |
| 20260505090330 | 59 | 38 | 0.9 | 0.9 | 0.00 | 0.00 | 0.00 | 63 | 999.3 |
| 20260505085725 | 59 | 39 | 0.0 | 0.0 | 0.00 | 0.00 | 0.00 | 64 | 999.3 |
| 20260505085123 | 59 | 62 | 0.9 | 1.7 | 0.00 | 0.00 | 0.00 | 65 | 998.9 |
| 20260505084548 | 59 | 60 | 1.7 | 1.7 | 0.00 | 0.00 | 0.00 | 65 | 998.9 |
| 20260505083930 | 59 | 45 | 0.9 | 0.9 | 0.00 | 0.00 | 0.00 | 65 | 999.3 |
| 20260505082713 | 59 | 34 | 0.0 | 0.0 | 0.00 | 0.00 | 0.00 | 63 | 998.9 |
| 20260505081509 | 58 | 41 | 0.9 | 0.9 | 0.00 | 0.00 | 0.00 | 64 | 998.9 |
| 20260505080952 | 59 | 34 | 0.9 | 0.9 | 0.00 | 0.00 | 0.00 | 65 | 998.6 |
| 20260505080308 | 59 | 335 | 2.6 | 2.6 | 0.00 | 0.00 | 0.00 | 63 | 998.6 |
| 20260505075729 | 59 | 14 | 4.3 | 6.1 | 0.00 | 0.00 | 0.00 | 64 | 998.6 |
| 20260505075111 | 59 | 11 | 0.9 | 0.9 | 0.00 | 0.00 | 0.00 | 64 | 998.6 |
| 20260505073939 | 59 | 37 | 0.9 | 1.7 | 0.00 | 0.00 | 0.00 | 63 | 998.6 |
| 20260505073351 | 59 | 61 | 1.7 | 1.7 | 0.00 | 0.00 | 0.00 | 65 | 998.6 |
| 20260505072150 | 60 | 93 | 1.7 | 1.7 | 0.00 | 0.00 | 0.00 | 62 | 998.6 |
| 20260505070926 | 59 | 67 | 1.7 | 1.7 | 0.00 | 0.00 | 0.00 | 61 | 998.3 |
| 20260505070310 | 59 | 66 | 1.7 | 1.7 | 0.00 | 0.00 | 0.00 | 61 | 998.6 |
| 20260505065739 | 58 | 63 | 1.7 | 1.7 | 0.00 | 0.00 | 0.00 | 64 | 998.3 |
| 20260505064531 | 59 | 47 | 0.9 | 0.9 | 0.00 | 0.00 | 0.00 | 61 | 998.6 |
| 20260505063912 | 59 | 34 | 0.9 | 0.9 | 0.00 | 0.00 | 0.00 | 61 | 998.3 |
| 20260505063352 | 59 | 48 | 0.9 | 0.9 | 0.00 | 0.00 | 0.00 | 61 | 998.3 |
| 20260505062752 | 59 | 48 | 0.9 | 0.9 | 0.00 | 0.00 | 0.00 | 61 | 998.3 |
| 20260505062120 | 59 | 42 | 0.9 | 0.9 | 0.00 | 0.00 | 0.00 | 61 | 998.3 |
| 20260505060932 | 60 | 77 | 1.7 | 1.7 | 0.00 | 0.00 | 0.00 | 59 | 998.3 |
| 20260505060347 | 60 | 61 | 0.9 | 1.7 | 0.00 | 0.00 | 0.00 | 59 | 998.3 |
| 20260505055730 | 60 | 35 | 0.9 | 0.9 | 0.00 | 0.00 | 0.00 | 58 | 998.3 |
| 20260505055120 | 60 | 57 | 0.9 | 1.7 | 0.00 | 0.00 | 0.00 | 60 | 998.3 |
| 20260505054545 | 60 | 34 | 0.9 | 0.9 | 0.00 | 0.00 | 0.00 | 58 | 998.3 |
| 20260505053930 | 61 | 35 | 0.0 | 0.9 | 0.00 | 0.00 | 0.00 | 57 | 998.3 |
| 20260505053309 | 60 | 55 | 0.9 | 0.9 | 0.00 | 0.00 | 0.00 | 60 | 998.6 |
| 20260505051537 | 61 | 42 | 0.9 | 0.9 | 0.00 | 0.00 | 0.00 | 57 | 997.9 |
| 20260505050326 | 60 | 61 | 0.9 | 1.7 | 0.00 | 0.00 | 0.00 | 57 | 998.3 |
| 20260505041526 | 60 | 55 | 0.9 | 0.9 | 0.00 | 0.00 | 0.00 | 57 | 997.6 |
| 20260505040919 | 60 | 14 | 0.0 | 0.0 | 0.00 | 0.00 | 0.00 | 56 | 997.9 |
| 20260505035138 | 62 | 39 | 0.0 | 0.0 | 0.00 | 0.00 | 0.00 | 55 | 997.9 |
| 20260505034556 | 61 | 43 | 0.9 | 0.9 | 0.00 | 0.00 | 0.00 | 57 | 997.9 |
| 20260505033913 | 61 | 15 | 0.9 | 1.7 | 0.00 | 0.00 | 0.00 | 53 | 997.9 |
| 20260505033320 | 60 | 10 | 2.6 | 2.6 | 0.00 | 0.00 | 0.00 | 57 | 997.9 |
| 20260505032719 | 60 | 42 | 0.0 | 0.0 | 0.00 | 0.00 | 0.00 | 60 | 997.9 |
| 20260505032128 | 60 | 93 | 1.7 | 1.7 | 0.00 | 0.00 | 0.00 | 59 | 998.3 |
| 20260505031514 | 60 | 36 | 0.0 | 0.0 | 0.00 | 0.00 | 0.00 | 60 | 997.9 |
| 20260505030941 | 61 | 52 | 0.9 | 0.9 | 0.00 | 0.00 | 0.00 | 59 | 997.9 |
| 20260505030344 | 60 | 45 | 0.9 | 0.9 | 0.00 | 0.00 | 0.00 | 60 | 997.9 |
| 20260505025743 | 61 | 46 | 0.9 | 1.7 | 0.00 | 0.00 | 0.00 | 58 | 997.9 |
| 20260505025129 | 61 | 3 | 0.9 | 1.7 | 0.00 | 0.00 | 0.00 | 59 | 997.9 |
| 20260505024538 | 61 | 35 | 0.0 | 0.9 | 0.00 | 0.00 | 0.00 | 59 | 997.9 |
| 20260505022123 | 61 | 47 | 0.9 | 0.9 | 0.00 | 0.00 | 0.00 | 60 | 997.9 |
| 20260505021511 | 61 | 23 | 0.9 | 1.7 | 0.00 | 0.00 | 0.00 | 59 | 997.9 |
| 20260505020926 | 61 | 41 | 0.0 | 0.9 | 0.00 | 0.00 | 0.00 | 63 | 997.9 |
| 20260505020317 | 61 | 66 | 1.7 | 1.7 | 0.00 | 0.00 | 0.00 | 61 | 997.9 |
| 20260505015154 | 60 | 44 | 0.9 | 0.9 | 0.00 | 0.00 | 0.00 | 63 | 997.6 |
| 20260505014530 | 61 | 47 | 0.9 | 0.9 | 0.00 | 0.00 | 0.00 | 63 | 997.9 |
| 20260505013918 | 61 | 50 | 0.9 | 0.9 | 0.00 | 0.00 | 0.00 | 63 | 997.6 |
| 20260505013318 | 62 | 48 | 0.9 | 0.9 | 0.00 | 0.00 | 0.00 | 62 | 997.6 |
| 20260505012711 | 61 | 55 | 0.9 | 0.9 | 0.00 | 0.00 | 0.00 | 63 | 997.9 |
| 20260505012147 | 61 | 59 | 0.0 | 0.9 | 0.00 | 0.00 | 0.00 | 63 | 997.9 |
| 20260505011536 | 61 | 87 | 2.6 | 2.6 | 0.00 | 0.00 | 0.00 | 64 | 997.6 |
| 20260505010914 | 61 | 56 | 0.0 | 0.0 | 0.00 | 0.00 | 0.00 | 65 | 997.9 |
| 20260505010331 | 61 | 55 | 0.0 | 0.9 | 0.00 | 0.00 | 0.00 | 64 | 997.9 |
| 20260505005751 | 62 | 61 | 0.9 | 1.7 | 0.00 | 0.00 | 0.00 | 63 | 997.9 |
| 20260505005121 | 62 | 53 | 0.0 | 0.9 | 0.00 | 0.00 | 0.00 | 63 | 997.9 |
| 20260505004534 | 61 | 50 | 0.9 | 0.9 | 0.00 | 0.00 | 0.00 | 65 | 997.6 |
| 20260505003929 | 61 | 57 | 0.9 | 0.9 | 0.00 | 0.00 | 0.00 | 65 | 997.6 |
| 20260505003354 | 62 | 57 | 0.9 | 0.9 | 0.00 | 0.00 | 0.00 | 64 | 997.6 |
| 20260505002111 | 62 | 52 | 0.9 | 0.9 | 0.00 | 0.00 | 0.00 | 64 | 997.6 |
| 20260505001513 | 62 | 52 | 0.9 | 0.9 | 0.00 | 0.00 | 0.00 | 64 | 997.6 |
| 20260505000916 | 62 | 52 | 0.9 | 0.9 | 0.00 | 0.00 | 0.00 | 63 | 997.6 |
| 20260505000318 | 62 | 54 | 0.9 | 0.9 | 0.00 | 0.00 | 0.00 | 63 | 997.6 |
| 20260504235715 | 63 | 49 | 0.9 | 0.9 | 0.00 | 0.00 | 0.00 | 61 | 997.6 |
| 20260504234528 | 65 | 345 | 1.7 | 1.7 | 0.00 | 0.00 | 0.00 | 55 | 997.6 |
| 20260504233933 | 65 | 23 | 0.0 | 0.0 | 0.00 | 0.00 | 0.00 | 57 | 997.2 |
| 20260504233341 | 66 | 33 | 0.9 | 0.9 | 0.00 | 0.00 | 0.00 | 56 | 997.2 |
| 20260504232715 | 66 | 340 | 0.9 | 1.7 | 0.00 | 0.00 | 0.00 | 54 | 997.6 |
| 20260504232153 | 66 | 26 | 0.0 | 0.0 | 0.00 | 0.00 | 0.00 | 57 | 997.6 |
| 20260504231519 | 65 | 7 | 0.0 | 0.0 | 0.00 | 0.00 | 0.00 | 55 | 997.6 |
| 20260504230952 | 65 | 30 | 0.0 | 0.0 | 0.00 | 0.00 | 0.00 | 55 | 997.6 |
| 20260504225714 | 65 | 15 | 0.9 | 0.9 | 0.00 | 0.00 | 0.00 | 55 | 997.6 |
| 20260504225147 | 65 | 33 | 0.0 | 0.9 | 0.00 | 0.00 | 0.00 | 54 | 997.9 |
| 20260504224511 | 65 | 4 | 0.9 | 0.9 | 0.00 | 0.00 | 0.00 | 54 | 997.6 |
| 20260504223935 | 65 | 349 | 0.9 | 1.7 | 0.00 | 0.00 | 0.00 | 54 | 997.6 |
| 20260504223316 | 65 | 15 | 0.0 | 0.0 | 0.00 | 0.00 | 0.00 | 55 | 997.9 |
| 20260504222753 | 66 | 38 | 0.0 | 0.0 | 0.00 | 0.00 | 0.00 | 55 | 998.3 |
| 20260504222112 | 66 | 349 | 1.7 | 3.5 | 0.00 | 0.00 | 0.00 | 52 | 997.9 |
| 20260504221522 | 66 | 319 | 1.7 | 1.7 | 0.00 | 0.00 | 0.00 | 53 | 997.9 |
| 20260504220927 | 65 | 26 | 1.7 | 2.6 | 0.00 | 0.00 | 0.00 | 53 | 997.9 |
| 20260504220316 | 65 | 308 | 4.3 | 5.2 | 0.00 | 0.00 | 0.00 | 54 | 998.3 |
| 20260504215123 | 64 | 329 | 1.7 | 2.6 | 0.00 | 0.00 | 0.00 | 57 | 997.9 |
| 20260504214552 | 64 | 359 | 0.0 | 0.0 | 0.00 | 0.00 | 0.00 | 56 | 998.3 |
| 20260504213951 | 65 | 353 | 3.5 | 3.5 | 0.00 | 0.00 | 0.00 | 55 | 997.9 |
| 20260504211527 | 65 | 0 | 0.0 | 0.0 | 0.00 | 0.00 | 0.00 | 55 | 998.3 |
| 20260504210950 | 65 | 21 | 1.7 | 2.6 | 0.00 | 0.00 | 0.00 | 54 | 997.9 |
| 20260504210330 | 66 | 107 | 3.5 | 5.2 | 0.00 | 0.00 | 0.00 | 53 | 998.3 |
| 20260504205734 | 66 | 315 | 1.7 | 2.6 | 0.00 | 0.00 | 0.00 | 52 | 997.9 |
| 20260504205140 | 66 | 308 | 4.3 | 5.2 | 0.00 | 0.00 | 0.00 | 51 | 997.6 |
| 20260504204542 | 66 | 60 | 0.9 | 1.7 | 0.00 | 0.00 | 0.00 | 52 | 997.6 |
| 20260504203931 | 66 | 67 | 1.7 | 2.6 | 0.00 | 0.00 | 0.00 | 51 | 997.9 |
| 20260504202734 | 66 | 3 | 0.0 | 0.0 | 0.00 | 0.00 | 0.00 | 49 | 997.9 |
| 20260504202114 | 67 | 345 | 1.7 | 2.6 | 0.00 | 0.00 | 0.00 | 49 | 997.6 |
| 20260504201541 | 68 | 6 | 2.6 | 5.2 | 0.00 | 0.00 | 0.00 | 48 | 997.9 |
| 20260504200320 | 68 | 323 | 0.9 | 1.7 | 0.00 | 0.00 | 0.00 | 48 | 997.9 |
| 20260504195752 | 67 | 19 | 1.7 | 1.7 | 0.00 | 0.00 | 0.00 | 49 | 998.3 |
| 20260504195124 | 66 | 301 | 2.6 | 2.6 | 0.00 | 0.00 | 0.00 | 51 | 998.3 |
| 20260504194552 | 66 | 334 | 3.5 | 5.2 | 0.00 | 0.00 | 0.00 | 51 | 998.3 |
| 20260504193936 | 67 | 285 | 2.6 | 2.6 | 0.00 | 0.00 | 0.00 | 49 | 997.9 |
| 20260504193337 | 68 | 335 | 4.3 | 5.2 | 0.00 | 0.00 | 0.00 | 48 | 997.9 |
| 20260504192722 | 69 | 320 | 3.5 | 5.2 | 0.00 | 0.00 | 0.00 | 47 | 997.9 |
| 20260504192139 | 69 | 319 | 4.3 | 6.1 | 0.00 | 0.00 | 0.00 | 46 | 997.9 |
| 20260504191533 | 70 | 52 | 0.9 | 0.9 | 0.00 | 0.00 | 0.00 | 46 | 997.9 |
| 20260504190949 | 68 | 329 | 2.6 | 5.2 | 0.00 | 0.00 | 0.00 | 47 | 997.9 |
| 20260504185733 | 68 | 47 | 0.9 | 1.7 | 0.00 | 0.00 | 0.00 | 49 | 997.9 |
| 20260504184535 | 68 | 268 | 2.6 | 2.6 | 0.00 | 0.00 | 0.00 | 47 | 997.9 |
| 20260504183943 | 67 | 78 | 0.9 | 0.9 | 0.00 | 0.00 | 0.00 | 48 | 998.3 |
| 20260504183329 | 68 | 15 | 0.9 | 1.7 | 0.00 | 0.00 | 0.00 | 51 | 998.3 |
| 20260504182741 | 67 | 60 | 3.5 | 5.2 | 0.00 | 0.00 | 0.00 | 49 | 998.3 |
| 20260504182142 | 68 | 6 | 3.5 | 3.5 | 0.00 | 0.00 | 0.00 | 47 | 998.3 |
| 20260504181512 | 68 | 308 | 5.2 | 6.1 | 0.00 | 0.00 | 0.00 | 48 | 998.3 |
| 20260504180923 | 68 | 1 | 3.5 | 7.0 | 0.00 | 0.00 | 0.00 | 49 | 998.6 |
| 20260504180320 | 66 | 309 | 3.5 | 3.5 | 0.00 | 0.00 | 0.00 | 51 | 998.6 |
| 20260504175748 | 66 | 312 | 6.1 | 9.6 | 0.00 | 0.00 | 0.00 | 52 | 998.9 |
| 20260504174534 | 66 | 10 | 0.9 | 0.9 | 0.00 | 0.00 | 0.00 | 53 | 998.9 |
| 20260504173931 | 66 | 308 | 1.7 | 2.6 | 0.00 | 0.00 | 0.00 | 52 | 998.6 |
| 20260504172713 | 63 | 337 | 1.7 | 2.6 | 0.00 | 0.00 | 0.00 | 55 | 998.9 |
| 20260504172134 | 63 | 278 | 1.7 | 1.7 | 0.00 | 0.00 | 0.00 | 60 | 998.9 |
| 20260504171554 | 62 | 341 | 0.9 | 1.7 | 0.00 | 0.00 | 0.00 | 58 | 999.3 |